Station 41046 - EAST BAHAMAS - 335 NM East of San Salvador Is, Bahamas Image indicating link to RSS feed of recent meteorological observations for station 41046


Conditions at 41046 as of
(5:30 pm EDT)
2130 GMT on 04/19/2024:
     

Click on the graph icon in the table below to see a time series plot of the last five days of that observation.

5-day plot - Wind Direction Wind Direction (WDIR): NE ( 50 deg true )
5-day plot - Wind Speed Wind Speed (WSPD): 13.6 kts
5-day plot - Wind Gust Wind Gust (GST): 17.5 kts
5-day plot - Atmospheric Pressure Atmospheric Pressure (PRES):30.00 in
5-day plot - Air Temperature Air Temperature (ATMP): 75.9 °F
5-day plot - Water Temperature Water Temperature (WTMP): 78.8 °F
5-day plot - Wind Speed at 10 Meters Wind Speed at 10 meters (WSPD10M): 13.6 kts
5-day plot - Wind Speed at 20 Meters Wind Speed at 20 meters (WSPD20M): 15.5 kts
5-day plot -  Wind Speed, Wind Gust and Atmospheric Pressure Combined plot of Wind Speed, Gust, and Air Pressure
Supplemental Measurements
Highest 1-minute Wind Speed
Time (EDT)5-day plot - 1-Minute Wind Speed WSPD 5-day plot - 1-Minute Wind Direction WDIR
5:26 pm 15.5 kts-
Previous observations
TIME
(EDT)
5-day plot - Wind Direction
WDIR
 
5-day plot - Wind Speed
WSPD
kts
5-day plot - Wind Gust
GST
kts
5-day plot - Wave Height
WVHT
ft
5-day plot - Dominant Wave Period
DPD
sec
5-day plot - Average Wave Period
APD
sec
5-day plot - Mean Wave Direction
MWD
 
5-day plot - Atmospheric Pressure
PRES
in
5-day plot - Pressure Tendency
PTDY
in
5-day plot - Air Temperature
ATMP
°F
5-day plot - Water Temperature
WTMP
°F
5-day plot - Dew Point
DEWP
°F
5-day plot - Salinity
SAL
psu
5-day plot - Visibility
VIS
nmi
5-day plot - Tide (above MLLW)
TIDE
ft
2024-04-19 05:20 pm NE 13.6 15.5 5.2 115.8ENE30.00- 75.9 78.8----
2024-04-19 05:10 pm NE 13.6 17.5 5.2-5.8ENE30.00- 75.7 78.8----
2024-04-19 05:00 pm NE 13.6 17.5----30.00-0.01 75.9 78.8----
2024-04-19 04:50 pm NE 13.6 17.5 5.2 115.9 NE30.00- 75.9 78.8----
2024-04-19 04:40 pm NE 13.6 17.5----30.00- 75.7 78.6----
2024-04-19 04:30 pm NE 15.5 17.5----30.00- 75.9 78.6----
2024-04-19 04:20 pm NE 13.6 17.5 4.9 115.5 NE30.00- 75.9 78.6----
2024-04-19 04:10 pm NE 13.6 17.5 4.9-5.5 NE30.00- 75.9 78.6----
2024-04-19 04:00 pm NE 13.6 17.5----30.00-0.03 75.9 78.6----
2024-04-19 03:50 pm NE 13.6 17.5 5.6 115.6ENE30.00- 75.9 78.6----
2024-04-19 03:40 pm NE 13.6 17.5 5.6-5.6ENE30.00- 75.9 78.6----
2024-04-19 03:30 pm NE 13.6 17.5----30.00- 75.7 78.6----
2024-04-19 03:20 pm NE 13.6 17.5 5.6 125.9ENE30.00- 75.7 78.6----
2024-04-19 03:10 pm NE 15.5 19.4 5.6-5.9ENE30.00- 75.7 78.6----
2024-04-19 03:00 pmNNE 13.6 17.5----30.00-0.04 75.9 78.6----
2024-04-19 02:50 pm NE 13.6 17.5 5.2 105.6ENE30.00- 75.9 78.8----
2024-04-19 02:40 pm NE 13.6 17.5----30.01- 75.9 78.8----
2024-04-19 02:30 pmNNE 13.6 17.5----30.01- 75.9 78.8----
2024-04-19 02:20 pm NE 13.6 17.5 4.6 115.5 NE30.01- 75.9 78.8----
2024-04-19 02:10 pm NE 13.6 17.5 4.6-5.5 NE30.01- 75.9 78.8----
2024-04-19 02:00 pm NE 13.6 19.4----30.01-0.04 75.9 78.8----
2024-04-19 01:50 pmNNE 13.6 17.5 5.2 125.9ENE30.01- 75.9 78.8----
2024-04-19 01:40 pm NE 15.5 19.4----30.02- 75.7 78.8----
2024-04-19 01:30 pm NE 13.6 17.5----30.02- 75.9 78.8----
2024-04-19 01:20 pm NE 13.6 17.5 5.2 126.0ENE30.02- 76.1 78.8----
2024-04-19 01:10 pm NE 13.6 17.5 5.2-6.0ENE30.02- 75.9 78.8----
2024-04-19 01:00 pm NE 13.6 17.5----30.02-0.03 75.9 78.8----
2024-04-19 12:50 pmNNE 13.6 19.4 4.9 125.8ENE30.02- 75.7 78.8----
2024-04-19 12:40 pmNNE 15.5 17.5 4.9-5.8ENE30.02- 75.7 78.8----
2024-04-19 12:30 pm NE 13.6 17.5----30.03- 75.7 78.8----
2024-04-19 12:20 pm NE 15.5 17.5 4.9 115.9ENE30.03- 75.9 78.6----
2024-04-19 12:10 pmNNE 13.6 17.5 4.9-5.9ENE30.03- 75.7 78.6----
2024-04-19 12:00 pm NE 13.6 17.5----30.04+0.00 75.7 78.6----
2024-04-19 11:50 amNNE 13.6 17.5 4.9 126.0ENE30.04- 75.7 78.6----
2024-04-19 11:40 amNNE 13.6 17.5----30.04- 75.7 78.6----
2024-04-19 11:30 amNNE 13.6 17.5----30.04- 75.7 78.6----
2024-04-19 11:20 amNNE 13.6 17.5 4.6 85.7ENE30.04- 75.6 78.6----
2024-04-19 11:10 am NE 13.6 17.5----30.05- 75.6 78.4----
2024-04-19 11:00 am NE 11.7 15.5 4.6-5.7ENE30.05+0.01 75.6 78.4----
2024-04-19 10:50 amNNE 11.7 15.5 5.2 116.4 NE30.05- 75.6 78.4----
2024-04-19 10:40 am NE 11.7 13.6----30.05- 75.6 78.4----
2024-04-19 10:30 amNNE 11.7 15.5----30.05- 75.4 78.4----
2024-04-19 10:20 amNNE 11.7 13.6 4.9 126.0ENE30.05- 75.4 78.4----
2024-04-19 10:10 amNNE 11.7 15.5 4.9-6.0ENE30.05- 75.4 78.4----
2024-04-19 10:00 am NE 11.7 15.5----30.05+0.02 75.6 78.4----
2024-04-19 09:50 amNNE 11.7 15.5 4.6 116.0ENE30.05- 75.4 78.4----
2024-04-19 09:40 amNNE 11.7 17.5----30.05- 75.4 78.4----
2024-04-19 09:30 amNNE 11.7 13.6----30.05- 75.4 78.4----
2024-04-19 09:20 amNNE 11.7 13.6 4.9 116.4ENE30.05- 75.2 78.3----
2024-04-19 09:10 amNNE 11.7 13.6 4.9-6.4ENE30.05- 75.2 78.3----
2024-04-19 09:00 amNNE 9.7 13.6----30.05+0.04 75.2 78.3----
2024-04-19 08:50 amNNE 9.7 11.7 4.9 106.2ENE30.04- 75.2 78.3----
2024-04-19 08:40 amNNE 9.7 13.6----30.04- 75.2 78.3----
2024-04-19 08:30 am NE 9.7 13.6----30.04- 75.2 78.3----
2024-04-19 08:20 am NE 9.7 13.6 5.2 126.4ENE30.04- 75.2 78.3----
2024-04-19 08:10 am NE 9.7 11.7 5.2-6.4ENE30.04- 75.2 78.3----
2024-04-19 08:00 am NE 9.7 13.6----30.04+0.06 75.2 78.3----
2024-04-19 07:50 am NE 9.7 11.7 5.2 126.3ENE30.04- 75.2 78.3----
2024-04-19 07:40 am NE 9.7 13.6----30.03- 75.2 78.3----
2024-04-19 07:30 am NE 9.7 11.7----30.03- 75.0 78.3----
2024-04-19 07:20 amNNE 9.7 13.6 5.2 126.1ENE30.03- 75.0 78.3----
2024-04-19 07:10 am NE 9.7 13.6 5.2-6.1ENE30.03- 75.0 78.3----
2024-04-19 07:00 am NE 11.7 13.6----30.03+0.06 75.0 78.3----
2024-04-19 06:50 amNNE 11.7 13.6 5.2 126.1ENE30.03- 74.7 78.3----
2024-04-19 06:40 amNNE 11.7 15.5----30.02- 74.7 78.3----
2024-04-19 06:30 amNNE 11.7 15.5----30.02- 74.5 78.3----
2024-04-19 06:20 amNNE 11.7 13.6 4.9 116.0ENE30.02- 74.5 78.3----
2024-04-19 06:10 amNNE 11.7 13.6 4.9-6.0ENE30.01- 74.5 78.3----
2024-04-19 06:00 am NE 11.7 13.6----30.01+0.02 74.5 78.4----
2024-04-19 05:50 amNNE 11.7 15.5 5.9 126.3 NE30.00- 74.5 78.3----
2024-04-19 05:40 amNNE 13.6 17.5----30.00- 74.5 78.3----
2024-04-19 05:30 amNNE 11.7 17.5----30.00- 74.5 78.4----
2024-04-19 05:20 amNNE 13.6 17.5 5.6 106.1ENE29.99- 74.5-----
2024-04-19 05:10 amNNE 11.7 15.5----29.99- 74.3 78.4----
2024-04-19 05:00 amNNE 11.7 17.5----29.99+0.00 74.3 78.4----
2024-04-19 04:50 amNNE 9.7 13.6 5.9 126.6ENE29.98- 74.3 78.4----
2024-04-19 04:40 am NE 11.7 13.6----29.98- 74.1 78.4----
2024-04-19 04:30 am NE 9.7 13.6----29.97- 74.3 78.4----
2024-04-19 04:20 am NE 9.7 13.6 5.6 126.2ENE29.97- 74.3 78.4----
2024-04-19 04:10 am NE 11.7 15.5 5.6-6.2ENE29.97- 74.3 78.4----
2024-04-19 04:00 am NE 9.7 13.6----29.97-0.04 74.3 78.4----
2024-04-19 03:50 am NE 11.7 13.6 5.2 116.3ENE29.97- 74.3 78.4----
2024-04-19 03:40 amNNE 11.7 15.5----29.97- 74.3 78.4----
2024-04-19 03:30 am NE 11.7 13.6----29.97- 74.5 78.4----
2024-04-19 03:20 am NE 11.7 13.6 5.6 126.4ENE29.98- 74.5 78.4----
2024-04-19 03:10 am NE 11.7 13.6 5.6-6.4ENE29.98- 74.5 78.4----
2024-04-19 03:00 am NE 11.7 15.5----29.98-0.05 74.5 78.4----
2024-04-19 02:50 amNNE 11.7 15.5 6.2 136.3ENE29.98- 74.5 78.4----
2024-04-19 02:40 am NE 11.7 15.5 6.2-6.3ENE29.98- 74.7 78.4----
2024-04-19 02:30 am NE 11.7 13.6----29.99- 74.7 78.4----
2024-04-19 02:20 am NE 11.7 13.6 5.9 136.2ENE29.99- 74.7 78.4----
2024-04-19 02:10 am NE 11.7 13.6 5.9-6.2ENE29.99- 74.7 78.4----
2024-04-19 02:00 am NE 11.7 13.6----29.99-0.05 74.7 78.4----
2024-04-19 01:50 am NE 11.7 15.5 5.6 96.1ENE29.99- 74.7 78.4----
2024-04-19 01:40 am NE 11.7 15.5----30.00- 74.7 78.4----
2024-04-19 01:30 am NE 11.7 15.5----30.00- 74.8 78.4----
2024-04-19 01:20 am NE 11.7 15.5 6.2 136.1ENE30.00- 74.8 78.4----
2024-04-19 01:10 amENE 13.6 15.5----30.00- 74.7 78.4----
2024-04-19 01:00 am NE 11.7 17.5----30.01-0.04 74.8 78.4----
2024-04-19 12:50 amENE 13.6 17.5 5.9 116.1ENE30.01- 75.0 78.4----
2024-04-19 12:40 am NE 11.7 17.5----30.02- 75.0 78.4----
2024-04-19 12:30 am NE 13.6 17.5----30.02- 75.0 78.4----
2024-04-19 12:20 am NE 13.6 17.5 5.9 116.1ENE30.03- 75.0 78.4----
2024-04-19 12:10 am NE 13.6 17.5 5.9-6.1ENE30.03- 75.0 78.4----
2024-04-19 12:00 am NE 13.6 15.5----30.03+0.00 75.0 78.4----
2024-04-18 11:50 pm NE 13.6 17.5 5.9 136.0ENE30.03- 75.0 78.4----
2024-04-18 11:40 pm NE 13.6 17.5----30.03- 75.0 78.4----
2024-04-18 11:30 pm NE 15.5 17.5----30.03- 75.0 78.4----
2024-04-18 11:20 pm NE 13.6 17.5 5.9 115.9 NE30.04- 75.2 78.4----
2024-04-18 11:10 pm NE 13.6 17.5 5.9-5.9 NE30.04- 75.0 78.4----
2024-04-18 11:00 pm NE 13.6 17.5----30.04+0.02 75.2 78.4----
2024-04-18 10:50 pm NE 15.5 17.5 6.6 136.2 NE30.04- 75.2 78.4----
2024-04-18 10:40 pm NE 15.5 19.4----30.05- 75.2 78.4----
2024-04-18 10:30 pm NE 15.5 19.4----30.04- 75.2 78.4----
2024-04-18 10:20 pm NE 15.5 19.4 5.9 116.0ENE30.04- 75.4 78.4----
2024-04-18 10:10 pm NE 15.5 19.4 5.9-6.0ENE30.04- 75.2 78.4----
2024-04-18 10:00 pm NE 15.5 17.5----30.04+0.03 75.4 78.4----
2024-04-18 09:50 pm NE 15.5 19.4 6.2 136.2ENE30.04- 75.4 78.4----
2024-04-18 09:40 pm NE 15.5 17.5----30.04- 75.2 78.4----
2024-04-18 09:30 pm NE 15.5 17.5----30.04- 75.4 78.4----
2024-04-18 09:20 pm NE 13.6 17.5 5.9 126.2ENE30.04- 75.4 78.4----
2024-04-18 09:10 pm NE 13.6 17.5----30.04- 75.4 78.4----
2024-04-18 09:00 pm NE 15.5 19.4----30.03+0.04 75.4 78.4----
2024-04-18 08:50 pm NE 15.5 19.4 6.2 75.9 E30.03- 75.4 78.4----
2024-04-18 08:40 pm NE 15.5 19.4----30.03- 75.4 78.4----
2024-04-18 08:30 pm NE 15.5 17.5----30.02- 75.4 78.4----
2024-04-18 08:20 pm NE 13.6 19.4 6.6 116.3 NE30.02- 75.6 78.4----
2024-04-18 08:10 pm NE 13.6 17.5 6.6-6.3 NE30.02- 75.6 78.4----
2024-04-18 08:00 pm NE 13.6 19.4----30.02+0.03 75.4 78.4----
2024-04-18 07:50 pm NE 15.5 17.5 5.6 125.8 NE30.02- 75.6 78.4----
2024-04-18 07:40 pm NE 13.6 17.5----30.02- 75.6 78.4----
2024-04-18 07:10 pm NE 13.6 17.5 6.6-6.3ENE30.02- 75.6 78.4----
2024-04-18 07:00 pm NE 15.5 17.5----30.01+0.02 75.6 78.4----
2024-04-18 06:50 pm NE 13.6 17.5 6.6 116.2ENE30.01- 75.6 78.4----
2024-04-18 06:40 pm NE 13.6 17.5----30.01- 75.6 78.4----
2024-04-18 06:30 pm NE 13.6 17.5----30.01- 75.7 78.4----
2024-04-18 06:20 pm NE 13.6 17.5 6.6 126.2ENE30.01- 75.7 78.4----
2024-04-18 06:10 pm NE 13.6 17.5 6.6-6.2ENE30.00- 75.7 78.4----
2024-04-18 06:00 pm NE 13.6 17.5----30.00+0.00 75.7 78.4----
2024-04-18 05:50 pm NE 13.6 17.5 6.2 126.1ENE30.00- 75.9 78.4----
2024-04-18 05:40 pm NE 13.6 17.5----30.00- 75.9 78.4----
2024-04-18 05:30 pm NE 13.6 17.5----30.00- 75.9 78.4----
2024-04-18 05:20 pm NE 13.6 17.5 6.2 126.1ENE30.00- 75.9 78.4----
2024-04-18 05:10 pm NE 15.5 19.4 6.2-6.1ENE30.00- 75.9 78.4----
2024-04-18 05:00 pm NE 15.5 17.5----29.99-0.03 75.9 78.4----
2024-04-18 04:50 pm NE 15.5 19.4 6.2 116.1 NE29.99- 75.9 78.4----

Detailed Wave Summary
for 41046 as of (5:10 pm EDT)
2110 GMT on 04/19/2024:

These wave data are displayed in rounded times.

     

Click on the graph icon in the table below to see a time series plot of the last five days of that observation.

5-day plot - Significant Wave Height Significant Wave Height (WVHT): 5.2 ft
5-day plot - Swell Height Swell Height (SwH): 4.3 ft
5-day plot - Swell Period Swell Period (SwP): 10.8 sec
5-day plot - Swell Direction Swell Direction (SwD):ENE
5-day plot - Wind Wave Height Wind Wave Height (WWH): 3.3 ft
5-day plot - Wind Wave Period Wind Wave Period (WWP): 6.7 sec
5-day plot - Wind Wave Direction Wind Wave Direction (WWD):ENE
5-day plot - Wave Steepness Wave Steepness (STEEPNESS): SWELL
5-day plot - Average Wave Period Average Wave Period (APD): 5.8 sec
Previous observations
TIME
(EDT)
5-day plot - Wave Height
WVHT
ft
5-day plot - Swell Height
SwH
ft
5-day plot - Swell Period
SwP
sec
5-day plot - Swell Direction
SwD
 
5-day plot - Wind Wave Height
WWH
ft
5-day plot - Wind Wave Period
WWP
sec
5-day plot - Wind Wave Direction
WWD
 
5-day plot - Wave Steepness
STEEPNESS
 
5-day plot - Average Wave Period
APD
sec
2024-04-19 04:40 pm 5.2 4.3 11.4 NE 3.3 5.6 ENE SWELL 5.9
2024-04-19 04:10 pm 4.9 3.6 11.4 NE 3.3 5.3 NE SWELL 5.5
2024-04-19 03:40 pm 5.6 3.9 11.4ENE 3.9 6.2 ENE SWELL 5.6
2024-04-19 03:10 pm 5.6 4.3 12.1ENE 3.9 5.6 ENE SWELL 5.9
2024-04-19 02:40 pm 5.2 3.9 10.0ENE 3.6 5.9 ENE SWELL 5.6
2024-04-19 02:10 pm 4.6 3.6 10.8 NE 3.3 5.9 ENE SWELL 5.5
2024-04-19 01:40 pm 5.2 4.3 12.1ENE 3.3 5.6 ENE SWELL 5.9
2024-04-19 01:10 pm 5.2 4.3 12.1ENE 3.3 6.2 ENE SWELL 6.0
2024-04-19 12:40 pm 4.9 3.9 12.1ENE 3.3 6.7 ENE SWELL 5.8
2024-04-19 12:10 pm 4.9 3.9 11.4ENE 3.0 5.9 ENE SWELL 5.9
2024-04-19 11:40 am 4.9 3.9 12.1ENE 3.0 5.6 NE SWELL 6.0
2024-04-19 11:10 am 4.6 3.6 7.7ENE 3.0 6.2 ENE AVERAGE 5.7
2024-04-19 10:40 am 5.2 4.6 11.4 NE 2.6 5.3 ENE SWELL 6.4
2024-04-19 10:10 am 4.9 4.3 12.1ENE 2.6 5.3 ENE SWELL 6.0
2024-04-19 09:40 am 4.6 3.9 10.8ENE 2.3 5.6 NE SWELL 6.0
2024-04-19 09:10 am 4.9 4.3 11.4ENE 2.3 5.3 ENE SWELL 6.4
2024-04-19 08:40 am 4.9 4.6 10.0ENE 2.3 4.5 ENE SWELL 6.2
2024-04-19 08:10 am 5.2 4.9 12.1ENE 1.6 4.2 NE SWELL 6.4
2024-04-19 07:40 am 5.2 4.9 12.1ENE 1.6 4.2 ENE SWELL 6.3
2024-04-19 07:10 am 5.2 4.6 12.1ENE 2.3 4.0 NE SWELL 6.1
2024-04-19 06:40 am 5.2 4.6 12.1ENE 2.6 5.0 NE SWELL 6.1
2024-04-19 06:10 am 4.9 4.3 11.4ENE 2.6 5.6 NE SWELL 6.0
2024-04-19 05:40 am 5.9 4.9 12.1 NE 3.3 6.2 ENE SWELL 6.3
2024-04-19 05:10 am 5.6 4.6 10.0ENE 3.0 5.3 ENE SWELL 6.1
2024-04-19 04:40 am 5.9 5.2 12.1ENE 2.6 5.3 NE SWELL 6.6
2024-04-19 04:10 am 5.6 4.9 12.1ENE 2.6 5.0 ENE SWELL 6.2
2024-04-19 03:40 am 5.2 4.6 11.4ENE 2.6 4.8 NE SWELL 6.3
2024-04-19 03:10 am 5.6 4.9 12.1ENE 2.6 5.3 ENE SWELL 6.4
2024-04-19 02:40 am 6.2 5.2 12.9ENE 3.0 4.8 NE SWELL 6.3
2024-04-19 02:10 am 5.9 4.9 12.9ENE 2.6 5.0 ENE SWELL 6.2
2024-04-19 01:40 am 5.6 4.9 9.1ENE 3.0 5.0 NE AVERAGE 6.1
2024-04-19 01:10 am 6.2 4.9 12.9ENE 3.9 5.6 ENE SWELL 6.1
2024-04-19 12:40 am 5.9 4.9 10.8ENE 3.3 5.6 ENE SWELL 6.1
2024-04-19 12:10 am 5.9 4.9 11.4ENE 3.6 6.2 ENE SWELL 6.1
2024-04-18 11:40 pm 5.9 4.6 12.9ENE 3.9 6.7 ENE SWELL 6.0
2024-04-18 11:10 pm 5.9 4.3 10.8 NE 3.9 5.9 ENE SWELL 5.9
2024-04-18 10:40 pm 6.6 4.9 12.9 NE 4.3 6.2 ENE SWELL 6.2
2024-04-18 10:10 pm 5.9 4.3 11.4ENE 4.3 6.7 ENE SWELL 6.0
2024-04-18 09:40 pm 6.2 4.6 12.9ENE 4.3 6.7 ENE SWELL 6.2
2024-04-18 09:10 pm 5.9 4.6 12.1ENE 3.9 6.2 ENE SWELL 6.2
2024-04-18 08:40 pm 6.2 3.9 12.1ENE 4.6 7.1 E STEEP 5.9
2024-04-18 08:10 pm 6.6 4.9 11.4 NE 4.3 6.7 ENE SWELL 6.3
2024-04-18 07:40 pm 5.6 4.3 12.1 NE 3.9 6.7 ENE SWELL 5.8
2024-04-18 07:10 pm 6.6 5.2 12.1ENE 3.9 5.6 ENE SWELL 6.3
2024-04-18 06:40 pm 6.6 4.6 10.8ENE 4.6 5.9 ENE SWELL 6.2
2024-04-18 06:10 pm 6.6 5.2 12.1ENE 4.3 5.9 ENE SWELL 6.2
2024-04-18 05:40 pm 6.2 4.6 12.1ENE 3.9 5.6 ENE SWELL 6.1
2024-04-18 05:10 pm 6.2 4.6 12.1ENE 4.3 6.2 ENE SWELL 6.1

Plot of wave energy versus frequency (and period)